Weather Roundup
Issued by NWS Chicago, IL

Home | Current Version | Previous Version | Graphics & Text | Print | Product List | Glossary On
Versions: 1 2 3 4 5 6 7 8 9 10 11 12 13 14 15 16 17 18 19 20 21 22 23 24 25 26 27 28 29 30 31 32 33 34 35 36 37 38 39 40 41 42 43 44 45 46 47 48 49 50
000
NZUS59 KLOT 261107
HRRLOT

CHICAGO AREA WEATHER ROUNDUP
NATIONAL WEATHER SERVICE CHICAGO/ROMEOVILLE IL
600 AM CDT WED APR 26 2017

NOTE: "FAIR" INDICATES FEW OR NO CLOUDS BELOW 12,000 FEET WITH NO
SIGNIFICANT WEATHER AND/OR OBSTRUCTIONS TO VISIBILITY.

* THESE STATIONS ARE NOT UNDER NWS QUALITY CONTROL. THEY ALSO MAY NOT
  REPORT WEATHER SUCH AS PRECIPITATION OR FOG.

ILZ005-006-012>014-019>023-261200-
NORTHEAST ILLINOIS

CITY           SKY/WX    TMP DP  RH WIND       PRES   REMARKS
OHARE          CLOUDY    64  54  69 S14       29.46F
MIDWAY         CLOUDY    66  56  70 S13       29.47F
AURORA         CLOUDY    63  56  78 SE13      29.45F
LANSING*       MOCLDY    64  57  80 S13       29.50F
JOLIET*        CLOUDY    64  57  78 S8        29.47S
WAUKEGAN       MOCLDY    56  52  86 SE8       29.46F
DUPAGE AIRPORT PTCLDY    63  57  81 S12       29.45F
WHEELING       MOCLDY    64  56  75 S13       29.48S
KANKAKEE*      CLOUDY    63  55  74 S13       29.49F
MORRIS*        CLOUDY    64  55  74 S12       29.45S
LEWIS AIRPORT* CLOUDY    62  58  86 S14       29.47S
NORTHERLY ISL    N/A     65  54  67 SE14        N/A
$$

WIZ051-052-058>065-066-070>072-261200-
SOUTHEAST WISCONSIN

CITY           SKY/WX    TMP DP  RH WIND       PRES   REMARKS
MILWAUKEE      CLOUDY    59  53  80 S8        29.46F
KENOSHA*       PTCLDY    58  52  80 SE8       29.46F
RACINE*        PTCLDY    54  49  83 S10G20    29.48F
WAUKESHA       PTCLDY    59  52  77 SE12      29.45F
WEST BEND      CLOUDY    57  52  82 SE7       29.44F
$$

INZ001>003-010>013-019-020-261200-
NORTHWEST INDIANA

CITY           SKY/WX    TMP DP  RH WIND       PRES   REMARKS
GARY*          CLOUDY    66  54  63 SE9       29.50F
MICHIGAN CITY* NOT AVBL
RENSSELAER*    NOT AVBL
VALPARAISO     MOCLDY    64  56  75 S13       29.52F
$$

LMZ740>746-261200-
SOUTHERN LAKE MICHIGAN

STATION/POSITION TIME  SKY/WX   TEMP WIND        PRES    VSBY
                                AIR  DIR/SP/G
                 (UTC)          (F)  (DEG/KT/KT) (MB)    (MI)
HARRISON CRIB    1030            61  150/ 13/ 13   N/A
BURNHAM HARBOR   1100            65  160/  9/ 15   N/A
CALUMET HARBOR   1042            66  160/  9/ 16  998.1F
BURNS HARBOR     1040            66  160/ 11/ 16  999.7F
MICHIGAN CITY    1040            64  150/ 12/ 15   N/A
$$

ABBREVIATIONS USED IN REMARKS
   TC - TEMPERATURE IN CELSIUS
  WCI - WIND CHILL INDEX
   HX - HEAT INDEX
  VSB - VISIBILITY
$$




USA.gov is the U.S. government's official web portal to all federal, state and local government web resources and services.